Regional Weather Roundup
Issued by NWS

Home | Current Version | Previous Version | Text Only | Print | Product List | Glossary On
Versions: 1 2 3 4 5 6 7 8 9 10 11 12 13 14 15 16 17 18 19 20 21 22 23 24 25 26 27 28 29 30 31 32 33 34 35 36 37 38 39 40 41 42 43 44 45 46 47 48 49 50
000
ASUS45 KABQ 011210
RWRNM
NEW MEXICO REGIONAL WEATHER ROUNDUP
NATIONAL WEATHER SERVICE ALBUQUERQUE NM
600 AM MDT SAT AUG 01 2015

NOTE: "FAIR" MEANS FEW OR NO CLOUDS BELOW 12,000 FEET AGL WITH NO
       SIGNIFICANT WEATHER OR OBSTRUCTIONS TO VISION.

      THIS PRODUCT IS RELEASED AS TWO VERSIONS.  ONE VERSION NEAR
      THE TOP OF THE HOUR CONTAINING PRELIMINARY DATA FROM ALBUQUERQUE
      AND OTHER STATIONS.  A FINAL VERSION WITH ADDITIONAL DATA IS
      ISSUED ABOUT 10 MINUTES AFTER THE HOUR.

NMZ501-503-504-510>518-011300-
NORTHWEST PLATEAU/NORTHCENTRAL MOUNTAINS

CITY           SKY/WX    TMP DP  RH WIND       PRES   REMARKS
FARMINGTON     PTCLDY    63  61  93 E5        30.25S
6HR MIN TEMP:  63; 6HR MAX TEMP:  68; 6HR PCP:  0.07;

LOS ALAMOS     MOCLDY    59  59  99 CALM      30.40S
SANTA FE       PTCLDY    61  57  87 E3        30.34S
6HR MIN TEMP:  61; 6HR MAX TEMP:  65;

TAOS           CLOUDY    57  46  67 N5        30.40S
ANGEL FIRE     FAIR      51  50  96 CALM      30.47S

$$
NMZ402-403-502-505>509-011300-
WESTCENTRAL MOUNTAINS/SOUTHWEST MOUNTAINS

CITY           SKY/WX    TMP DP  RH WIND       PRES   REMARKS
GALLUP         CLOUDY    61  59  93 CALM      30.32S
6HR MIN TEMP:  60; 6HR MAX TEMP:  62; 6HR PCP: TRACE;

GRANTS         MOCLDY    59  58  97 S7        30.36S
SILVER CITY      N/A     63  57  82 N7        30.24F

$$
NMZ407-409-411-412-011300-
SOUTHERN DESERTS

CITY           SKY/WX    TMP DP  RH WIND       PRES   REMARKS
LORDSBURG      FAIR      64  61  88 CALM      30.14F
DEMING         PTCLDY    70  60  70 NE13      30.15F
6HR MIN TEMP:  70; 6HR MAX TEMP:  77;

LAS CRUCES     CLEAR     69  60  74 NW10      30.17S
HOLLOMAN AFB   CLOUDY    71  58  63 NW14      30.14S
ALAMOGORDO     CLEAR     66  57  72 E6        30.17R
T OR C         MOCLDY    66  62  87 SE3       30.22S
6HR MIN TEMP:  64; 6HR MAX TEMP:  72; 6HR PCP:  0.12;


$$
NMZ519>523-011300-
CENTRAL VALLEYS/CENTRAL HIGHLANDS

CITY           SKY/WX    TMP DP  RH WIND       PRES   REMARKS
ALBUQUERQUE    CLOUDY    68  59  73 SE3       30.29S
6HR MIN TEMP:  67; 6HR MAX TEMP:  71;

DOUBLE EAGLE   MOCLDY    63  61  94 SW5       30.32F
MORIARTY ARPT    N/A     60  57  89 CALM      30.35S
6HR MIN TEMP:  60; 6HR MAX TEMP:  62; 6HR PCP:  0.01;

CLINES CORNERS MOCLDY    59  55  87 NW8       30.37S
6HR MIN TEMP:  58; 6HR MAX TEMP:  61; 6HR PCP: TRACE;

BELEN          PTSUNNY   66  58  75 E5        30.27S
6HR MIN TEMP:  65; 6HR MAX TEMP:  68;

SOCORRO        CLOUDY    64  61  90 S3        30.23S
6HR MIN TEMP:  63; 6HR MAX TEMP:  68; 6HR PCP:  0.35;


$$
NMZ524>526-539-540-011300-
SOUTHCENTRAL MOUNTAINS

CITY           SKY/WX    TMP DP  RH WIND       PRES   REMARKS
RUIDOSO          N/A    N/A N/A N/A MISG        N/A

$$
NMZ527>531-011300-
NORTHEAST HIGHLANDS/NORTHEAST PLAINS

CITY           SKY/WX    TMP DP  RH WIND       PRES   REMARKS
LAS VEGAS      MOCLDY    58  55  90 SW10      30.34F
6HR MIN TEMP:  58; 6HR MAX TEMP:  61;

RATON          CLOUDY    61  59  93 CALM      30.30S
6HR MIN TEMP:  60; 6HR MAX TEMP:  64;

CLAYTON        PTCLDY    65  63  93 SW10      30.22S
6HR MIN TEMP:  64; 6HR MAX TEMP:  66;


$$
NMZ532>537-011300-
EASTCENTRAL PLAINS

CITY           SKY/WX    TMP DP  RH WIND       PRES   REMARKS
TUCUMCARI      LGT RAIN  68  66  93 S5        30.18F
6HR MIN TEMP:  68; 6HR MAX TEMP:  70; 6HR PCP:  0.13;

CANNON AFB     MOCLDY    67  67  97 NE5       30.22R
6HR MIN TEMP:  67; 6HR MAX TEMP:  69; 6HR PCP:  0.01;

CLOVIS AIRPORT CLOUDY    66  64  94 CALM      30.23R

$$
NMZ028-029-538-011300-
SOUTHEAST PLAINS

CITY           SKY/WX    TMP DP  RH WIND       PRES   REMARKS
ROSWELL        CLEAR     73  64  73 N6        30.15S
6HR MIN TEMP:  72; 6HR MAX TEMP:  81;

ARTESIA        CLEAR     72  66  83 N8        30.15R
CARLSBAD       CLEAR     74  60  61 W7        30.11R
6HR MIN TEMP:  73; 6HR MAX TEMP:  82;

HOBBS          CLEAR     68  66  94 VRB6      30.17R


$$



USA.gov is the U.S. government's official web portal to all federal, state and local government web resources and services.